Location: Peebles
(55.6412°N, 3.1714°W)
Time: 16:06:12
(UTC+01:00)

Meteor 1-15 Rocket - Pass Details

Date: 26 September 2021
Orbit: 840 x 907 km, 81.2° (Epoch: 18 October)

Event Time Altitude Azimuth Distance (km) Brightness Sun altitude
Rises 20:58:18 0° 189° (S) 3,385 7.2 -17.0°
Reaches altitude 10° 21:00:42 10° 189° (S) 2,456 6.5 -17.3°
Maximum altitude 21:06:16 83° 102° (ESE) 861 4.1 -18.1°
Drops below altitude 10° 21:11:56 10° 16° (NNE) 2,500 6.8 -18.8°
Sets 21:14:23 0° 16° (NNE) 3,450 7.5 -19.1°
